"Pseudo-MPEC" for P10IdAw

Created 2018 Jul 13 23:18:08 UT using Find_Orb

Click here for an explanation of pseudo-MPECs

 
 Astrometry: 
     P10IdAw  C2018 07 08T\AstrometryfB1`L:5?l0qe5[i.NCT.sFQSqh$#Y_hUJO(d!VNrF51
     P10IdAw  C2018 07 08u=SdK[aYC[NhQ=m.?mb[rkc\/dm76hTD-YYn9#)s+LJH?XBy%*ZwF51
     P10IdAw  C2018 07 08uxZ^'uSo)QVb0%!3.t?ZDASV=R6Gggve!Z'(/4x8eT!vYcBQ\VOXF51
     P10IdAw  C2018 07 08d,upvC]cse.*m=rE0redacted;^T1Z3gw/Z@H8*T3*08m^:XlxLcF51
     P10IdAw KC2018 07 09qqs/K*C9L@DTBlFL4'*D?x\30N2\8].1F3piv/)@KgdRgx3LwR$YH21
     P10IdAw KC2018 07 09?4.+qBYehl[WMWAVR_[?#g,2S,62Kt1vseeNTU:B!uTN-O^_4t$kH21
     P10IdAw KC2018 07 09;dGwg3(8an46HCPDE%RM2'fKo:OaUn.KE/N2v0K7$9M]W%\]WcI_H21
     P10IdAw KC2018 07 12Ou.CJoyrXJ=ARP=cUTAn\HQ9'3v^wFwu`JEU#rgM5.Z?KwtZriptL01
     P10IdAw KC2018 07 12t/!b`:_`7?[QCZ-FRtNB].a._\BW%8RySabm_t]6=qwdJLlNEOCPL01

Station data:
(F51) Pan-STARRS 1, Haleakala  (N20.707235 W156.255910)  US/Hawaii.
   Observers N. Primak, A. Schultz, S. Watters, J. Thiel, T. Goggia. Measurer
   PS1 Science Consortium. 1.8-m Ritchey-Chrétien + CCD.
(H21) Astronomical Research Observatory, Westfield  (N39.483057 W87.968270)
   US/Illinois. 0.76-m f/3.0 astrograph + CCD.
(L01) Višnjan Observatory, Tičan  (N45.290900 E13.749300)  Croatia.  Observer
   K. Korlević. 1.0-m f/2.9 reflector + CCD.

Orbital elements:  P10IdAw
   Perihelion 2019 Mar 12.810060 +/- 5.74 TT = 19:26:29 (JD 2458555.310060)
Epoch 2018 Jul 12.0 TT = JDT 2458311.5   Earth MOID: 0.6997   AutoNEOCP
M 267.81177 +/- 2.7                 (J2000 ecliptic)
n   0.37811492 +/- 0.0039           Peri.  245.46963 +/- 1.9
a   1.89402990 +/- 0.013            Node   138.87351 +/- 0.40
e   0.1424981 +/- 0.00531           Incl.   23.22686 +/- 0.26
P   2.61/952.07d           H 18.8   G  0.15   U  9.0  
q 1.62413421 +/- 0.00506    Q 2.16392560 +/- 0.0242
From 9 observations 2018 July 8-12; mean residual 0".07
Residuals in arcseconds: 
180708 F51  .03+  .02-    180708 F51  .04-  .05+    180709 H21  .18-  .09-    
180708 F51  .00   .06-    180709 H21  .05+  .07+    180712 L01  .07+  .01-    
180708 F51  .01+  .03+    180709 H21  .14+  .01+    180712 L01  .07-  .01+    

Ephemerides (geocentric):
Date (UTC) HH   RA              Dec         delta   r     elong  mag " sig PA
---- -- -- --  -------------   -----------  ------ ------ -----  --- ---- ---
2018 07 13 23  17 44 54.765   +06 13 23.06  1.0358 1.9386 141.7 21.3  .65 130
2018 07 14 00  17 44 52.329   +06 12 39.02  1.0359 1.9385 141.6 21.3  .69 130
2018 07 14 01  17 44 49.895   +06 11 54.95  1.0359 1.9384 141.6 21.3  .72 130
2018 07 14 02  17 44 47.464   +06 11 10.85  1.0360 1.9384 141.6 21.3  .75 130
2018 07 14 03  17 44 45.036   +06 10 26.71  1.0360 1.9383 141.6 21.3  .78 130
2018 07 14 04  17 44 42.611   +06 09 42.53  1.0361 1.9382 141.6 21.3  .81 130
2018 07 14 05  17 44 40.189   +06 08 58.32  1.0362 1.9382 141.5 21.3  .84 130
2018 07 14 06  17 44 37.770   +06 08 14.08  1.0362 1.9381 141.5 21.3  .88 130
2018 07 14 07  17 44 35.353   +06 07 29.80  1.0363 1.9380 141.5 21.3  .91 130
2018 07 14 08  17 44 32.939   +06 06 45.49  1.0364 1.9379 141.5 21.3  .94 131
2018 07 14 09  17 44 30.528   +06 06 01.15  1.0364 1.9379 141.4 21.3  .98 131
2018 07 14 10  17 44 28.120   +06 05 16.77  1.0365 1.9378 141.4 21.3  1.0 131
2018 07 14 11  17 44 25.715   +06 04 32.35  1.0366 1.9377 141.4 21.3  1.0 131
2018 07 14 12  17 44 23.313   +06 03 47.91  1.0366 1.9377 141.4 21.3  1.1 131
2018 07 14 13  17 44 20.913   +06 03 03.43  1.0367 1.9376 141.4 21.3  1.1 131
2018 07 14 14  17 44 18.517   +06 02 18.91  1.0368 1.9375 141.3 21.3  1.2 131
2018 07 14 15  17 44 16.123   +06 01 34.37  1.0368 1.9374 141.3 21.3  1.2 131
2018 07 14 16  17 44 13.733   +06 00 49.79  1.0369 1.9374 141.3 21.3  1.2 131
2018 07 14 17  17 44 11.345   +06 00 05.17  1.0370 1.9373 141.3 21.3  1.3 131
2018 07 14 18  17 44 08.960   +05 59 20.52  1.0370 1.9372 141.2 21.3  1.3 131
2018 07 14 19  17 44 06.578   +05 58 35.84  1.0371 1.9372 141.2 21.3  1.3 131
2018 07 14 20  17 44 04.198   +05 57 51.13  1.0372 1.9371 141.2 21.3  1.4 131
2018 07 14 21  17 44 01.822   +05 57 06.38  1.0372 1.9370 141.2 21.3  1.4 131
2018 07 14 22  17 43 59.449   +05 56 21.60  1.0373 1.9369 141.2 21.3  1.5 131
2018 07 14 23  17 43 57.079   +05 55 36.79  1.0374 1.9369 141.1 21.3  1.5 131
2018 07 15 00  17 43 54.711   +05 54 51.94  1.0374 1.9368 141.1 21.3  1.5 131
2018 07 15 01  17 43 52.347   +05 54 07.06  1.0375 1.9367 141.1 21.3  1.6 131
2018 07 15 02  17 43 49.985   +05 53 22.15  1.0376 1.9367 141.1 21.3  1.6 131
2018 07 15 03  17 43 47.626   +05 52 37.20  1.0377 1.9366 141.0 21.3  1.7 131
2018 07 15 04  17 43 45.271   +05 51 52.22  1.0377 1.9365 141.0 21.3  1.7 131
2018 07 15 05  17 43 42.918   +05 51 07.21  1.0378 1.9364 141.0 21.3  1.7 131
2018 07 15 06  17 43 40.568   +05 50 22.17  1.0379 1.9364 141.0 21.3  1.8 131
2018 07 15 07  17 43 38.222   +05 49 37.10  1.0379 1.9363 140.9 21.3  1.8 131
2018 07 15 08  17 43 35.878   +05 48 51.99  1.0380 1.9362 140.9 21.3  1.9 131
2018 07 15 09  17 43 33.537   +05 48 06.85  1.0381 1.9362 140.9 21.3  1.9 131
2018 07 15 10  17 43 31.199   +05 47 21.68  1.0382 1.9361 140.9 21.3  2.0 131
2018 07 15 11  17 43 28.864   +05 46 36.47  1.0382 1.9360 140.9 21.3  2.0 131
2018 07 15 12  17 43 26.532   +05 45 51.23  1.0383 1.9359 140.8 21.3  2.0 131
2018 07 15 13  17 43 24.204   +05 45 05.97  1.0384 1.9359 140.8 21.3  2.1 131
2018 07 15 14  17 43 21.878   +05 44 20.67  1.0385 1.9358 140.8 21.3  2.1 131
2018 07 15 15  17 43 19.555   +05 43 35.33  1.0385 1.9357 140.8 21.3  2.2 131
2018 07 15 16  17 43 17.235   +05 42 49.97  1.0386 1.9356 140.7 21.3  2.2 131
2018 07 15 17  17 43 14.918   +05 42 04.57  1.0387 1.9356 140.7 21.3  2.3 131
2018 07 15 18  17 43 12.605   +05 41 19.14  1.0388 1.9355 140.7 21.3  2.3 131
2018 07 15 19  17 43 10.294   +05 40 33.68  1.0388 1.9354 140.7 21.3  2.4 131
2018 07 15 20  17 43 07.986   +05 39 48.19  1.0389 1.9354 140.6 21.3  2.4 131
2018 07 15 21  17 43 05.681   +05 39 02.67  1.0390 1.9353 140.6 21.3  2.5 131
2018 07 15 22  17 43 03.380   +05 38 17.11  1.0391 1.9352 140.6 21.3  2.5 131